Time,TemperatureF,DewpointF,PressureIn,WindDirection,WindDirectionDegrees,WindSpeedMPH,WindSpeedGustMPH,Humidity,HourlyPrecipIn,Conditions,Clouds,dailyrainin,SoftwareType,DateUTC
2013-01-28 00:00:00,52.0,39.8,28.79,NE,39,0.0,0.0,63,0.00,,---,0.00,VWS V14.01,2013-01-28 06:00:00,
2013-01-28 00:06:00,51.6,39.8,28.79,NE,44,0.0,0.0,64,0.00,,---,0.00,VWS V14.01,2013-01-28 06:06:00,
2013-01-28 00:12:00,51.6,39.8,28.79,SSE,167,0.0,0.0,64,0.00,,---,0.00,VWS V14.01,2013-01-28 06:12:00,
2013-01-28 00:17:00,51.3,39.9,28.79,NNW,332,0.0,0.0,65,0.00,,---,0.00,VWS V14.01,2013-01-28 06:17:00,
2013-01-28 00:23:00,51.3,39.9,28.79,ENE,75,0.0,0.0,65,0.00,,---,0.00,VWS V14.01,2013-01-28 06:23:00,
2013-01-28 00:28:00,51.1,39.3,28.79,ENE,78,0.0,0.0,64,0.00,,---,0.00,VWS V14.01,2013-01-28 06:28:00,
2013-01-28 00:34:00,50.9,39.6,28.79,NNE,18,4.9,4.9,65,0.00,,---,0.00,VWS V14.01,2013-01-28 06:34:00,
2013-01-28 00:40:00,50.7,38.6,28.79,ESE,120,0.0,0.0,63,0.00,,---,0.00,VWS V14.01,2013-01-28 06:40:00,
2013-01-28 00:45:00,50.4,38.3,28.79,West,281,2.7,2.7,63,0.00,,---,0.00,VWS V14.01,2013-01-28 06:45:00,
2013-01-28 00:51:00,50.2,38.1,28.79,NNE,28,0.0,0.0,63,0.00,,---,0.00,VWS V14.01,2013-01-28 06:51:00,
2013-01-28 00:56:00,50.0,37.5,28.79,NE,44,0.0,0.0,62,0.00,,---,0.00,VWS V14.01,2013-01-28 06:56:00,
2013-01-28 01:02:00,49.8,37.3,28.79,NE,55,0.0,0.0,62,0.00,,---,0.00,VWS V14.01,2013-01-28 07:02:00,
2013-01-28 01:07:00,49.8,37.3,28.79,ENE,60,0.0,0.0,62,0.00,,---,0.00,VWS V14.01,2013-01-28 07:07:00,
2013-01-28 01:13:00,49.6,37.2,28.79,ENE,60,0.0,0.0,62,0.00,,---,0.00,VWS V14.01,2013-01-28 07:13:00,
2013-01-28 01:19:00,49.6,37.2,28.79,NNE,14,0.0,0.0,62,0.00,,---,0.00,VWS V14.01,2013-01-28 07:19:00,
2013-01-28 01:24:00,49.6,37.2,28.79,NNE,14,0.0,0.0,62,0.00,,---,0.00,VWS V14.01,2013-01-28 07:24:00,
2013-01-28 01:29:00,49.6,37.2,28.79,NNE,14,0.0,0.0,62,0.00,,---,0.00,VWS V14.01,2013-01-28 07:29:00,
2013-01-28 01:34:00,49.5,37.0,28.79,NNE,14,0.0,0.0,62,0.00,,---,0.00,VWS V14.01,2013-01-28 07:34:00,
2013-01-28 01:40:00,49.5,37.0,28.79,NNE,14,0.0,0.0,62,0.00,,---,0.00,VWS V14.01,2013-01-28 07:40:00,
2013-01-28 01:45:00,49.5,37.0,28.79,NNE,14,0.0,0.0,62,0.00,,---,0.00,VWS V14.01,2013-01-28 07:45:00,
2013-01-28 01:51:00,49.5,37.4,28.79,NNE,14,0.0,0.0,63,0.00,,---,0.00,VWS V14.01,2013-01-28 07:51:00,
2013-01-28 01:57:00,49.5,37.4,28.79,NNE,14,0.0,0.0,63,0.00,,---,0.00,VWS V14.01,2013-01-28 07:57:00,
2013-01-28 02:02:00,49.3,37.2,28.79,NNE,19,0.0,0.0,63,0.00,,---,0.00,VWS V14.01,2013-01-28 08:02:00,
2013-01-28 02:08:00,49.3,37.2,28.79,NNE,19,0.0,0.0,63,0.00,,---,0.00,VWS V14.01,2013-01-28 08:08:00,
2013-01-28 02:13:00,49.3,37.2,28.79,NNE,19,0.0,0.0,63,0.00,,---,0.00,VWS V14.01,2013-01-28 08:13:00,
2013-01-28 02:18:00,49.3,37.2,28.79,NNE,20,0.0,0.0,63,0.00,,---,0.00,VWS V14.01,2013-01-28 08:18:00,
2013-01-28 02:23:00,49.3,37.2,28.79,NNE,20,0.0,0.0,63,0.00,,---,0.00,VWS V14.01,2013-01-28 08:23:00,
2013-01-28 02:29:00,49.3,37.2,28.79,NNE,17,0.0,0.0,63,0.00,,---,0.00,VWS V14.01,2013-01-28 08:29:00,
2013-01-28 02:34:00,49.3,37.6,28.79,NNE,17,0.0,0.0,64,0.00,,---,0.00,VWS V14.01,2013-01-28 08:34:00,
2013-01-28 02:40:00,49.3,37.6,28.79,NNE,17,0.0,0.0,64,0.00,,---,0.00,VWS V14.01,2013-01-28 08:40:00,
2013-01-28 02:45:00,49.1,37.5,28.79,NNE,18,0.0,0.0,64,0.00,,---,0.00,VWS V14.01,2013-01-28 08:45:00,
2013-01-28 02:51:00,49.1,37.5,28.79,NNE,18,0.0,0.0,64,0.00,,---,0.00,VWS V14.01,2013-01-28 08:51:00,
2013-01-28 02:57:00,49.1,37.5,28.79,NNE,18,0.0,0.0,64,0.00,,---,0.00,VWS V14.01,2013-01-28 08:57:00,
2013-01-28 03:02:00,49.1,37.5,28.79,NNE,18,0.0,0.0,64,0.00,,---,0.00,VWS V14.01,2013-01-28 09:02:00,
2013-01-28 03:07:00,49.1,37.5,28.79,NNE,18,0.0,0.0,64,0.00,,---,0.00,VWS V14.01,2013-01-28 09:07:00,
2013-01-28 03:12:00,49.1,37.5,28.79,NNE,18,0.0,0.0,64,0.00,,---,0.00,VWS V14.01,2013-01-28 09:12:00,
2013-01-28 03:18:00,49.1,37.5,28.79,NNE,18,0.0,0.0,64,0.00,,---,0.00,VWS V14.01,2013-01-28 09:18:00,
2013-01-28 03:23:00,49.1,37.5,28.79,NNE,18,0.0,0.0,64,0.00,,---,0.00,VWS V14.01,2013-01-28 09:23:00,
2013-01-28 03:28:00,49.1,37.5,28.79,NNE,18,0.0,0.0,64,0.00,,---,0.00,VWS V14.01,2013-01-28 09:28:00,
2013-01-28 03:33:00,49.1,37.9,28.79,NNE,18,0.0,0.0,65,0.00,,---,0.00,VWS V14.01,2013-01-28 09:33:00,
2013-01-28 03:39:00,49.1,37.9,28.79,NNE,18,0.0,0.0,65,0.00,,---,0.00,VWS V14.01,2013-01-28 09:39:00,
2013-01-28 03:44:00,49.1,37.9,28.79,ESE,112,0.0,0.0,65,0.00,,---,0.00,VWS V14.01,2013-01-28 09:44:00,
2013-01-28 03:50:00,49.1,37.9,28.79,ESE,112,0.0,0.0,65,0.00,,---,0.00,VWS V14.01,2013-01-28 09:50:00,
2013-01-28 03:55:00,49.1,37.9,28.79,East,82,0.0,0.0,65,0.00,,---,0.00,VWS V14.01,2013-01-28 09:55:00,
2013-01-28 04:01:00,49.1,37.9,28.79,ENE,62,0.0,0.0,65,0.00,,---,0.00,VWS V14.01,2013-01-28 10:01:00,
2013-01-28 04:07:00,49.1,37.9,28.79,ENE,57,0.0,0.0,65,0.00,,---,0.00,VWS V14.01,2013-01-28 10:07:00,
2013-01-28 04:12:00,49.1,37.9,28.79,ENE,57,0.0,0.0,65,0.00,,---,0.00,VWS V14.01,2013-01-28 10:12:00,
2013-01-28 04:17:00,49.1,37.5,28.79,ENE,57,0.0,0.0,64,0.00,,---,0.00,VWS V14.01,2013-01-28 10:17:00,
2013-01-28 04:22:00,49.1,37.5,28.79,ENE,57,0.0,0.0,64,0.00,,---,0.00,VWS V14.01,2013-01-28 10:22:00,
2013-01-28 04:28:00,49.1,37.5,28.79,ENE,57,0.0,0.0,64,0.00,,---,0.00,VWS V14.01,2013-01-28 10:28:00,
2013-01-28 04:33:00,49.1,37.5,28.79,ENE,57,0.0,0.0,64,0.00,,---,0.00,VWS V14.01,2013-01-28 10:33:00,
2013-01-28 04:38:00,49.1,37.5,28.79,ENE,57,0.0,0.0,64,0.00,,---,0.00,VWS V14.01,2013-01-28 10:38:00,
2013-01-28 04:43:00,49.1,37.5,28.79,ENE,57,0.0,0.0,64,0.00,,---,0.00,VWS V14.01,2013-01-28 10:43:00,
2013-01-28 04:48:00,49.1,37.5,28.79,ENE,57,0.0,0.0,64,0.00,,---,0.00,VWS V14.01,2013-01-28 10:48:00,
2013-01-28 04:53:00,49.1,37.5,28.79,ENE,57,0.0,0.0,64,0.00,,---,0.00,VWS V14.01,2013-01-28 10:53:00,
2013-01-28 04:59:00,49.1,37.5,28.79,ENE,57,0.0,0.0,64,0.00,,---,0.00,VWS V14.01,2013-01-28 10:59:00,
2013-01-28 05:04:00,49.1,37.5,28.79,ENE,57,0.0,0.0,64,0.00,,---,0.00,VWS V14.01,2013-01-28 11:04:00,
2013-01-28 05:10:00,49.1,37.9,28.79,ENE,57,0.0,0.0,65,0.00,,---,0.00,VWS V14.01,2013-01-28 11:10:00,
2013-01-28 05:15:00,49.1,37.5,28.79,ENE,57,0.0,0.0,64,0.00,,---,0.00,VWS V14.01,2013-01-28 11:15:00,
2013-01-28 05:21:00,49.1,37.5,28.79,ENE,57,0.0,0.0,64,0.00,,---,0.00,VWS V14.01,2013-01-28 11:21:00,
2013-01-28 05:27:00,49.1,37.5,28.79,ENE,57,0.0,0.0,64,0.00,,---,0.00,VWS V14.01,2013-01-28 11:27:00,
2013-01-28 05:32:00,49.1,37.5,28.79,ENE,57,0.0,0.0,64,0.00,,---,0.00,VWS V14.01,2013-01-28 11:32:00,
2013-01-28 05:38:00,49.1,37.5,28.79,ENE,57,0.0,0.0,64,0.00,,---,0.00,VWS V14.01,2013-01-28 11:38:00,
2013-01-28 05:43:00,48.9,37.3,28.79,ENE,66,0.0,0.0,64,0.00,,---,0.00,VWS V14.01,2013-01-28 11:43:00,
2013-01-28 05:49:00,48.9,37.3,28.79,ENE,57,0.0,0.0,64,0.00,,---,0.00,VWS V14.01,2013-01-28 11:49:00,
2013-01-28 05:55:00,48.9,37.3,28.79,East,85,0.0,0.0,64,0.00,,---,0.00,VWS V14.01,2013-01-28 11:55:00,
2013-01-28 06:00:00,48.9,37.3,28.79,ENE,70,0.0,0.0,64,0.00,,---,0.00,VWS V14.01,2013-01-28 12:00:00,
2013-01-28 06:06:00,48.9,37.3,28.79,NNE,23,0.0,0.0,64,0.00,,---,0.00,VWS V14.01,2013-01-28 12:06:00,
2013-01-28 06:11:00,48.9,37.7,28.79,ESE,103,0.0,0.0,65,0.00,,---,0.00,VWS V14.01,2013-01-28 12:11:00,
2013-01-28 06:17:00,48.9,37.7,28.79,ESE,103,0.0,0.0,65,0.00,,---,0.00,VWS V14.01,2013-01-28 12:17:00,
2013-01-28 06:22:00,48.9,37.7,28.79,ESE,103,0.0,0.0,65,0.00,,---,0.00,VWS V14.01,2013-01-28 12:22:00,
2013-01-28 06:28:00,48.9,37.7,28.79,ESE,103,0.0,0.0,65,0.00,,---,0.00,VWS V14.01,2013-01-28 12:28:00,
2013-01-28 06:34:00,48.9,37.7,28.79,ESE,103,0.0,0.0,65,0.00,,---,0.00,VWS V14.01,2013-01-28 12:34:00,
2013-01-28 06:39:00,48.9,37.7,28.79,ESE,103,0.0,0.0,65,0.00,,---,0.00,VWS V14.01,2013-01-28 12:39:00,
2013-01-28 06:45:00,48.9,37.7,28.79,NW,318,0.0,0.0,65,0.00,,---,0.00,VWS V14.01,2013-01-28 12:45:00,
2013-01-28 06:51:00,48.9,37.7,28.79,North,5,0.0,0.0,65,0.00,,---,0.00,VWS V14.01,2013-01-28 12:51:00,
2013-01-28 06:56:00,48.9,37.7,28.79,East,79,0.0,0.0,65,0.00,,---,0.00,VWS V14.01,2013-01-28 12:56:00,
2013-01-28 07:01:00,48.9,37.7,28.79,East,79,0.0,0.0,65,0.00,,---,0.00,VWS V14.01,2013-01-28 13:01:00,
2013-01-28 07:06:00,48.7,37.5,28.79,East,79,0.0,0.0,65,0.00,,---,0.00,VWS V14.01,2013-01-28 13:06:00,
2013-01-28 07:12:00,48.6,37.3,28.79,ENE,78,0.0,0.0,65,0.00,,---,0.00,VWS V14.01,2013-01-28 13:12:00,
2013-01-28 07:17:00,48.2,37.0,28.79,ENE,78,0.0,0.0,65,0.00,,---,0.00,VWS V14.01,2013-01-28 13:17:00,
2013-01-28 07:22:00,47.8,37.0,28.79,ENE,78,0.0,0.0,66,0.00,,---,0.00,VWS V14.01,2013-01-28 13:22:00,
2013-01-28 07:27:00,47.8,37.0,28.79,ENE,78,0.0,0.0,66,0.00,,---,0.00,VWS V14.01,2013-01-28 13:27:00,
2013-01-28 07:32:00,48.0,37.6,28.79,ENE,78,0.0,0.0,67,0.00,,---,0.00,VWS V14.01,2013-01-28 13:32:00,
2013-01-28 07:38:00,48.2,37.8,28.79,ENE,78,0.0,0.0,67,0.00,,---,0.00,VWS V14.01,2013-01-28 13:38:00,
2013-01-28 07:43:00,48.4,38.7,28.79,ESE,114,0.0,0.0,69,0.00,,---,0.00,VWS V14.01,2013-01-28 13:43:00,
2013-01-28 07:49:00,48.4,38.7,28.79,ENE,75,0.0,0.0,69,0.00,,---,0.00,VWS V14.01,2013-01-28 13:49:00,
2013-01-28 07:55:00,48.6,39.2,28.79,NNE,25,0.0,0.0,70,0.00,,---,0.00,VWS V14.01,2013-01-28 13:55:00,
2013-01-28 08:01:00,48.7,39.4,28.79,NNE,25,0.0,0.0,70,0.00,,---,0.00,VWS V14.01,2013-01-28 14:01:00,
2013-01-28 08:06:00,48.9,39.6,28.79,NNE,25,0.0,0.0,70,0.00,,---,0.00,VWS V14.01,2013-01-28 14:06:00,
2013-01-28 08:12:00,49.1,39.8,28.79,NNE,30,0.0,0.0,70,0.00,,---,0.00,VWS V14.01,2013-01-28 14:12:00,
2013-01-28 08:17:00,49.3,39.9,28.79,NNE,30,0.0,0.0,70,0.00,,---,0.00,VWS V14.01,2013-01-28 14:17:00,
2013-01-28 08:23:00,49.5,40.1,28.79,NNE,31,0.0,0.0,70,0.00,,---,0.00,VWS V14.01,2013-01-28 14:23:00,
2013-01-28 08:28:00,49.6,40.3,28.79,NE,50,0.0,0.0,70,0.00,,---,0.00,VWS V14.01,2013-01-28 14:28:00,
2013-01-28 08:34:00,50.2,40.4,28.79,NE,51,0.0,0.0,69,0.00,,---,0.00,VWS V14.01,2013-01-28 14:34:00,
2013-01-28 08:39:00,50.7,40.9,28.79,ENE,58,0.0,0.0,69,0.00,,---,0.00,VWS V14.01,2013-01-28 14:39:00,
2013-01-28 08:44:00,51.3,41.5,28.79,ENE,58,0.0,0.0,69,0.00,,---,0.00,VWS V14.01,2013-01-28 14:44:00,
2013-01-28 08:50:00,52.0,41.8,28.79,ENE,58,0.0,0.0,68,0.00,,---,0.00,VWS V14.01,2013-01-28 14:50:00,
2013-01-28 08:55:00,52.2,41.5,28.79,ENE,58,0.0,0.0,67,0.00,,---,0.00,VWS V14.01,2013-01-28 14:55:00,
2013-01-28 09:00:00,52.2,41.2,28.79,ENE,58,0.0,0.0,66,0.00,,---,0.00,VWS V14.01,2013-01-28 15:00:00,
2013-01-28 09:05:00,52.3,40.5,28.79,ENE,58,0.0,0.0,64,0.00,,---,0.00,VWS V14.01,2013-01-28 15:05:00,
2013-01-28 09:11:00,52.9,41.0,28.79,ENE,58,0.0,0.0,64,0.00,,---,0.00,VWS V14.01,2013-01-28 15:11:00,
2013-01-28 09:16:00,53.6,41.7,28.79,ENE,57,0.0,0.0,64,0.00,,---,0.00,VWS V14.01,2013-01-28 15:16:00,
2013-01-28 09:21:00,54.1,42.2,28.79,ENE,57,0.0,0.0,64,0.00,,---,0.00,VWS V14.01,2013-01-28 15:21:00,
2013-01-28 09:26:00,54.5,41.8,28.79,ENE,57,0.0,0.0,62,0.00,,---,0.00,VWS V14.01,2013-01-28 15:26:00,
2013-01-28 09:32:00,56.3,43.9,28.79,ENE,57,0.0,0.0,63,0.00,,---,0.00,VWS V14.01,2013-01-28 15:32:00,
2013-01-28 09:37:00,56.8,43.5,28.79,ENE,57,0.0,0.0,61,0.00,,---,0.00,VWS V14.01,2013-01-28 15:37:00,
2013-01-28 09:43:00,57.4,43.6,28.79,ENE,57,0.0,0.0,60,0.00,,---,0.00,VWS V14.01,2013-01-28 15:43:00,
2013-01-28 09:48:00,58.1,44.3,28.77,ENE,57,0.0,0.0,60,0.00,,---,0.00,VWS V14.01,2013-01-28 15:48:00,
2013-01-28 09:54:00,58.8,46.3,28.77,SE,133,0.0,0.0,63,0.00,,---,0.00,VWS V14.01,2013-01-28 15:54:00,
2013-01-28 09:59:00,58.8,46.3,28.77,SE,137,0.0,0.0,63,0.00,,---,0.00,VWS V14.01,2013-01-28 15:59:00,
2013-01-28 10:05:00,58.8,46.3,28.77,SE,127,0.0,0.0,63,0.00,,---,0.00,VWS V14.01,2013-01-28 16:05:00,
2013-01-28 10:11:00,58.8,46.3,28.77,SE,128,0.0,0.0,63,0.00,,---,0.00,VWS V14.01,2013-01-28 16:11:00,
2013-01-28 10:16:00,58.8,46.3,28.79,NW,314,0.0,0.0,63,0.00,,---,0.00,VWS V14.01,2013-01-28 16:16:00,
2013-01-28 10:22:00,58.8,46.3,28.79,WNW,293,3.1,3.1,63,0.00,,---,0.00,VWS V14.01,2013-01-28 16:22:00,
2013-01-28 10:27:00,58.8,46.3,28.79,NNW,334,0.0,0.0,63,0.00,,---,0.00,VWS V14.01,2013-01-28 16:27:00,
2013-01-28 10:33:00,65.5,45.3,28.77,WSW,246,4.0,4.0,48,0.00,,---,0.00,VWS V14.01,2013-01-28 16:33:00,
2013-01-28 10:39:00,66.4,43.2,28.77,East,100,4.0,4.0,43,0.00,,---,0.00,VWS V14.01,2013-01-28 16:39:00,
2013-01-28 10:44:00,66.4,43.2,28.77,SW,225,4.9,5.4,43,0.00,,---,0.00,VWS V14.01,2013-01-28 16:44:00,
2013-01-28 10:50:00,68.0,40.8,28.77,SSW,199,3.1,5.4,37,0.00,,---,0.00,VWS V14.01,2013-01-28 16:50:00,
2013-01-28 10:55:00,67.8,40.6,28.77,SSW,212,3.1,4.9,37,0.00,,---,0.00,VWS V14.01,2013-01-28 16:55:00,
2013-01-28 11:01:00,68.4,40.4,28.77,NNW,327,2.2,4.0,36,0.00,,---,0.00,VWS V14.01,2013-01-28 17:01:00,
2013-01-28 11:07:00,68.4,40.4,28.77,North,357,0.0,3.6,36,0.00,,---,0.00,VWS V14.01,2013-01-28 17:07:00,
2013-01-28 11:12:00,69.4,39.9,28.77,WSW,250,2.2,5.8,34,0.00,,---,0.00,VWS V14.01,2013-01-28 17:12:00,
2013-01-28 11:18:00,69.4,39.9,28.77,WSW,245,6.3,6.3,34,0.00,,---,0.00,VWS V14.01,2013-01-28 17:18:00,
2013-01-28 11:24:00,70.0,40.3,28.77,WNW,288,5.4,5.4,34,0.00,,---,0.00,VWS V14.01,2013-01-28 17:24:00,
2013-01-28 11:29:00,70.5,40.1,28.77,SSW,194,4.9,4.9,33,0.00,,---,0.00,VWS V14.01,2013-01-28 17:29:00,
2013-01-28 11:34:00,70.7,39.4,28.77,WSW,248,3.6,4.0,32,0.00,,---,0.00,VWS V14.01,2013-01-28 17:34:00,
2013-01-28 11:39:00,70.7,39.4,28.77,SE,128,3.1,6.3,32,0.00,,---,0.00,VWS V14.01,2013-01-28 17:39:00,
2013-01-28 11:45:00,70.7,39.4,28.77,South,187,3.1,3.6,32,0.00,,---,0.00,VWS V14.01,2013-01-28 17:45:00,
2013-01-28 11:50:00,70.9,39.6,28.77,WSW,247,3.1,3.6,32,0.00,,---,0.00,VWS V14.01,2013-01-28 17:50:00,
2013-01-28 11:56:00,71.6,39.4,28.77,West,280,3.6,5.8,31,0.00,,---,0.00,VWS V14.01,2013-01-28 17:56:00,
2013-01-28 12:01:00,72.1,38.2,28.74,SW,219,3.1,5.4,29,0.00,,---,0.00,VWS V14.01,2013-01-28 18:01:00,
2013-01-28 12:07:00,72.7,37.7,28.74,NNE,18,2.2,5.8,28,0.00,,---,0.00,VWS V14.01,2013-01-28 18:07:00,
2013-01-28 12:12:00,73.0,37.1,28.74,SW,220,6.3,8.1,27,0.00,,---,0.00,VWS V14.01,2013-01-28 18:12:00,
2013-01-28 12:18:00,73.0,36.2,28.74,SW,216,6.3,6.3,26,0.00,,---,0.00,VWS V14.01,2013-01-28 18:18:00,
2013-01-28 12:24:00,73.4,36.5,28.74,South,170,2.2,5.4,26,0.00,,---,0.00,VWS V14.01,2013-01-28 18:24:00,
2013-01-28 12:29:00,73.6,36.6,28.74,WNW,287,4.0,8.1,26,0.00,,---,0.00,VWS V14.01,2013-01-28 18:29:00,
2013-01-28 12:35:00,73.8,36.8,28.71,WSW,249,3.1,3.6,26,0.00,,---,0.00,VWS V14.01,2013-01-28 18:35:00,
2013-01-28 12:41:00,73.9,36.9,28.71,SSE,151,4.0,8.1,26,0.00,,---,0.00,VWS V14.01,2013-01-28 18:41:00,
2013-01-28 12:46:00,74.7,37.5,28.71,WSW,240,3.1,10.1,26,0.00,,---,0.00,VWS V14.01,2013-01-28 18:46:00,
2013-01-28 12:52:00,74.7,36.5,28.71,NNE,15,3.6,9.6,25,0.00,,---,0.00,VWS V14.01,2013-01-28 18:52:00,
2013-01-28 12:57:00,75.2,37.0,28.71,WNW,296,0.0,5.8,25,0.00,,---,0.00,VWS V14.01,2013-01-28 18:57:00,
2013-01-28 13:03:00,75.6,36.3,28.71,NW,304,10.5,10.5,24,0.00,,---,0.00,VWS V14.01,2013-01-28 19:03:00,
2013-01-28 13:09:00,75.4,36.1,28.71,West,279,7.2,8.3,24,0.00,,---,0.00,VWS V14.01,2013-01-28 19:09:00,
2013-01-28 13:14:00,75.6,36.3,28.71,ESE,118,8.3,9.2,24,0.00,,---,0.00,VWS V14.01,2013-01-28 19:14:00,
2013-01-28 13:20:00,75.6,36.3,28.68,South,179,3.1,11.4,24,0.00,,---,0.00,VWS V14.01,2013-01-28 19:20:00,
2013-01-28 13:25:00,75.6,36.3,28.68,WSW,237,3.1,8.1,24,0.00,,---,0.00,VWS V14.01,2013-01-28 19:25:00,
2013-01-28 13:31:00,76.1,37.8,28.68,SSE,158,2.2,12.3,25,0.00,,---,0.00,VWS V14.01,2013-01-28 19:31:00,
2013-01-28 13:37:00,76.1,37.8,28.68,WNW,286,4.9,5.8,25,0.00,,---,0.00,VWS V14.01,2013-01-28 19:37:00,
2013-01-28 13:42:00,76.1,36.7,28.68,WSW,252,3.1,6.7,24,0.00,,---,0.00,VWS V14.01,2013-01-28 19:42:00,
2013-01-28 13:47:00,76.1,36.7,28.68,South,184,5.8,8.3,24,0.00,,---,0.00,VWS V14.01,2013-01-28 19:47:00,
2013-01-28 13:53:00,75.4,37.2,28.68,West,279,6.3,10.1,25,0.00,,---,0.00,VWS V14.01,2013-01-28 19:53:00,
2013-01-28 13:59:00,75.6,36.3,28.68,WSW,258,8.7,12.3,24,0.00,,---,0.00,VWS V14.01,2013-01-28 19:59:00,
2013-01-28 14:05:00,75.7,36.4,28.65,North,9,2.2,4.0,24,0.00,,---,0.00,VWS V14.01,2013-01-28 20:05:00,
2013-01-28 14:10:00,75.9,36.6,28.65,South,186,7.2,7.6,24,0.00,,---,0.00,VWS V14.01,2013-01-28 20:10:00,
2013-01-28 14:16:00,76.3,37.9,28.65,West,280,9.6,9.6,25,0.00,,---,0.00,VWS V14.01,2013-01-28 20:16:00,
2013-01-28 14:21:00,76.3,36.9,28.65,WSW,251,8.1,8.1,24,0.00,,---,0.00,VWS V14.01,2013-01-28 20:21:00,
2013-01-28 14:27:00,76.6,37.2,28.65,ESE,120,4.9,5.4,24,0.00,,---,0.00,VWS V14.01,2013-01-28 20:27:00,
2013-01-28 14:32:00,76.8,37.3,28.65,NW,324,4.0,5.4,24,0.00,,---,0.00,VWS V14.01,2013-01-28 20:32:00,
2013-01-28 14:38:00,76.3,37.9,28.65,SSW,193,8.1,8.1,25,0.00,,---,0.00,VWS V14.01,2013-01-28 20:38:00,
2013-01-28 14:44:00,75.7,37.5,28.65,West,279,3.6,6.3,25,0.00,,---,0.00,VWS V14.01,2013-01-28 20:44:00,
2013-01-28 14:49:00,75.9,37.6,28.65,South,183,5.8,10.1,25,0.00,,---,0.00,VWS V14.01,2013-01-28 20:49:00,
2013-01-28 14:54:00,75.9,37.6,28.65,South,185,4.0,7.2,25,0.00,,---,0.00,VWS V14.01,2013-01-28 20:54:00,
2013-01-28 14:59:00,75.6,37.3,28.65,West,265,12.3,12.3,25,0.00,,---,0.00,VWS V14.01,2013-01-28 20:59:00,
2013-01-28 15:05:00,75.2,38.0,28.65,WSW,257,8.7,8.7,26,0.00,,---,0.00,VWS V14.01,2013-01-28 21:05:00,
2013-01-28 15:10:00,75.4,38.2,28.65,SW,223,2.7,3.6,26,0.00,,---,0.00,VWS V14.01,2013-01-28 21:10:00,
2013-01-28 15:16:00,75.7,38.5,28.65,ENE,57,0.0,8.3,26,0.00,,---,0.00,VWS V14.01,2013-01-28 21:16:00,
2013-01-28 15:22:00,75.9,37.6,28.65,South,181,5.8,5.8,25,0.00,,---,0.00,VWS V14.01,2013-01-28 21:22:00,
2013-01-28 15:27:00,75.6,38.3,28.65,NW,304,5.4,5.4,26,0.00,,---,0.00,VWS V14.01,2013-01-28 21:27:00,
2013-01-28 15:33:00,75.2,39.9,28.65,NNW,345,3.6,4.0,28,0.00,,---,0.00,VWS V14.01,2013-01-28 21:33:00,
2013-01-28 15:38:00,75.0,41.5,28.65,SSW,210,3.1,6.3,30,0.00,,---,0.00,VWS V14.01,2013-01-28 21:38:00,
2013-01-28 15:44:00,74.7,41.2,28.65,SSE,150,5.4,8.3,30,0.00,,---,0.00,VWS V14.01,2013-01-28 21:44:00,
2013-01-28 15:50:00,74.7,42.0,28.65,WSW,239,5.4,8.3,31,0.00,,---,0.00,VWS V14.01,2013-01-28 21:50:00,
2013-01-28 15:55:00,74.7,42.0,28.65,WNW,284,6.3,8.7,31,0.00,,---,0.00,VWS V14.01,2013-01-28 21:55:00,
2013-01-28 16:00:00,74.3,41.7,28.65,South,189,3.6,7.6,31,0.00,,---,0.00,VWS V14.01,2013-01-28 22:00:00,
2013-01-28 16:05:00,74.1,41.6,28.65,NW,314,2.7,6.3,31,0.00,,---,0.00,VWS V14.01,2013-01-28 22:05:00,
2013-01-28 16:11:00,73.8,41.3,28.65,SSW,193,2.2,8.3,31,0.00,,---,0.00,VWS V14.01,2013-01-28 22:11:00,
2013-01-28 16:16:00,73.6,41.9,28.65,WNW,300,2.7,10.1,32,0.00,,---,0.00,VWS V14.01,2013-01-28 22:16:00,
2013-01-28 16:22:00,73.6,41.9,28.65,SW,235,0.0,5.8,32,0.00,,---,0.00,VWS V14.01,2013-01-28 22:22:00,
2013-01-28 16:28:00,73.4,41.8,28.65,SSE,159,15.4,15.4,32,0.00,,---,0.00,VWS V14.01,2013-01-28 22:28:00,
2013-01-28 16:33:00,73.6,41.9,28.62,SSW,200,5.4,5.4,32,0.00,,---,0.00,VWS V14.01,2013-01-28 22:33:00,
2013-01-28 16:38:00,73.6,41.9,28.62,SW,222,4.9,4.9,32,0.00,,---,0.00,VWS V14.01,2013-01-28 22:38:00,
2013-01-28 16:44:00,73.2,42.4,28.62,NE,41,4.0,7.6,33,0.00,,---,0.00,VWS V14.01,2013-01-28 22:44:00,
2013-01-28 16:50:00,73.0,42.3,28.62,West,271,4.0,5.8,33,0.00,,---,0.00,VWS V14.01,2013-01-28 22:50:00,
2013-01-28 16:55:00,73.0,42.3,28.62,SSE,159,5.8,6.3,33,0.00,,---,0.00,VWS V14.01,2013-01-28 22:55:00,
2013-01-28 17:01:00,72.9,42.9,28.62,WSW,238,8.3,8.3,34,0.00,,---,0.00,VWS V14.01,2013-01-28 23:01:00,
2013-01-28 17:07:00,72.5,43.3,28.62,North,1,0.0,2.2,35,0.00,,---,0.00,VWS V14.01,2013-01-28 23:07:00,
2013-01-28 17:12:00,72.1,43.0,28.62,West,263,3.1,5.8,35,0.00,,---,0.00,VWS V14.01,2013-01-28 23:12:00,
2013-01-28 17:17:00,72.0,43.6,28.62,NW,312,0.0,4.9,36,0.00,,---,0.00,VWS V14.01,2013-01-28 23:17:00,
2013-01-28 17:23:00,71.8,44.1,28.62,SW,219,7.6,7.6,37,0.00,,---,0.00,VWS V14.01,2013-01-28 23:23:00,
2013-01-28 17:29:00,71.6,44.7,28.62,WNW,295,5.4,6.3,38,0.00,,---,0.00,VWS V14.01,2013-01-28 23:29:00,
2013-01-28 17:34:00,71.4,45.2,28.62,North,11,2.7,4.0,39,0.00,,---,0.00,VWS V14.01,2013-01-28 23:34:00,
2013-01-28 17:40:00,71.2,45.7,28.62,WNW,288,0.0,5.8,40,0.00,,---,0.00,VWS V14.01,2013-01-28 23:40:00,
2013-01-28 17:45:00,71.1,45.5,28.62,SE,135,3.1,3.1,40,0.00,,---,0.00,VWS V14.01,2013-01-28 23:45:00,
2013-01-28 17:50:00,71.1,45.5,28.62,WSW,249,4.0,4.0,40,0.00,,---,0.00,VWS V14.01,2013-01-28 23:50:00,
2013-01-28 17:56:00,70.9,45.4,28.62,ENE,73,0.0,5.4,40,0.00,,---,0.00,VWS V14.01,2013-01-28 23:56:00,
2013-01-28 18:01:00,70.5,45.1,28.62,SSW,193,8.7,8.7,40,0.00,,---,0.00,VWS V14.01,2013-01-29 00:01:00,
2013-01-28 18:06:00,70.3,44.9,28.62,SSW,212,4.0,4.0,40,0.00,,---,0.00,VWS V14.01,2013-01-29 00:06:00,
2013-01-28 18:11:00,70.0,44.6,28.62,WSW,255,4.0,4.0,40,0.00,,---,0.00,VWS V14.01,2013-01-29 00:11:00,
2013-01-28 18:17:00,69.8,45.1,28.62,NW,319,3.1,4.9,41,0.00,,---,0.00,VWS V14.01,2013-01-29 00:17:00,
2013-01-28 18:22:00,69.6,45.5,28.62,West,271,5.4,6.3,42,0.00,,---,0.00,VWS V14.01,2013-01-29 00:22:00,
2013-01-28 18:28:00,69.4,45.4,28.62,SW,215,4.9,4.9,42,0.00,,---,0.00,VWS V14.01,2013-01-29 00:28:00,
2013-01-28 18:34:00,69.8,45.7,28.62,WNW,292,3.1,3.6,42,0.00,,---,0.00,VWS V14.01,2013-01-29 00:34:00,
2013-01-28 18:39:00,70.0,45.9,28.62,SSW,203,7.6,7.6,42,0.00,,---,0.00,VWS V14.01,2013-01-29 00:39:00,
2013-01-28 18:44:00,70.0,45.9,28.62,SSW,205,0.0,5.4,42,0.00,,---,0.00,VWS V14.01,2013-01-29 00:44:00,
2013-01-28 18:49:00,69.8,45.7,28.62,SE,131,3.1,3.1,42,0.00,,---,0.00,VWS V14.01,2013-01-29 00:49:00,
2013-01-28 18:54:00,69.8,46.3,28.62,NNW,334,0.0,0.0,43,0.00,,---,0.00,VWS V14.01,2013-01-29 00:54:00,
2013-01-28 19:00:00,69.6,47.4,28.62,East,84,0.0,8.1,45,0.00,,---,0.00,VWS V14.01,2013-01-29 01:00:00,
2013-01-28 19:05:00,69.4,47.8,28.62,SW,216,2.2,5.8,46,0.00,,---,0.00,VWS V14.01,2013-01-29 01:05:00,
2013-01-28 19:10:00,69.3,48.2,28.62,South,182,3.1,5.8,47,0.00,,---,0.00,VWS V14.01,2013-01-29 01:10:00,
2013-01-28 19:16:00,69.3,48.2,28.62,WNW,301,2.7,8.3,47,0.00,,---,0.00,VWS V14.01,2013-01-29 01:16:00,
2013-01-28 19:21:00,69.3,48.8,28.62,South,185,6.3,6.3,48,0.00,,---,0.00,VWS V14.01,2013-01-29 01:21:00,
2013-01-28 19:27:00,69.3,48.8,28.62,West,276,2.2,3.6,48,0.00,,---,0.00,VWS V14.01,2013-01-29 01:27:00,
2013-01-28 19:32:00,69.1,49.1,28.62,SW,226,2.7,5.4,49,0.00,,---,0.00,VWS V14.01,2013-01-29 01:32:00,
2013-01-28 19:38:00,68.7,48.8,28.62,West,270,0.0,0.0,49,0.00,,---,0.00,VWS V14.01,2013-01-29 01:38:00,
2013-01-28 19:44:00,68.4,49.0,28.62,NW,319,3.1,9.6,50,0.00,,---,0.00,VWS V14.01,2013-01-29 01:44:00,
2013-01-28 19:49:00,68.4,49.5,28.62,WSW,237,0.0,4.0,51,0.00,,---,0.00,VWS V14.01,2013-01-29 01:49:00,
2013-01-28 19:55:00,67.8,49.6,28.62,SW,224,7.2,8.1,52,0.00,,---,0.00,VWS V14.01,2013-01-29 01:55:00,
2013-01-28 20:00:00,67.6,49.9,28.62,East,79,3.1,3.1,53,0.00,,---,0.00,VWS V14.01,2013-01-29 02:00:00,
2013-01-28 20:06:00,67.6,49.9,28.62,NW,309,2.7,6.3,53,0.00,,---,0.00,VWS V14.01,2013-01-29 02:06:00,
2013-01-28 20:11:00,67.5,49.8,28.62,SSW,205,2.7,5.4,53,0.00,,---,0.00,VWS V14.01,2013-01-29 02:11:00,
2013-01-28 20:17:00,67.5,50.2,28.62,NW,309,4.0,4.9,54,0.00,,---,0.00,VWS V14.01,2013-01-29 02:17:00,
2013-01-28 20:23:00,67.1,49.9,28.62,West,260,0.0,3.1,54,0.00,,---,0.00,VWS V14.01,2013-01-29 02:23:00,
2013-01-28 20:28:00,66.9,50.2,28.62,WNW,284,0.0,4.9,55,0.00,,---,0.00,VWS V14.01,2013-01-29 02:28:00,
2013-01-28 20:33:00,66.9,50.2,28.62,SSW,202,0.0,2.7,55,0.00,,---,0.00,VWS V14.01,2013-01-29 02:33:00,
2013-01-28 20:38:00,66.7,50.6,28.62,WSW,253,4.0,4.5,56,0.00,,---,0.00,VWS V14.01,2013-01-29 02:38:00,
2013-01-28 20:44:00,66.6,50.9,28.62,ESE,108,2.7,8.7,57,0.00,,---,0.00,VWS V14.01,2013-01-29 02:44:00,
2013-01-28 20:49:00,66.4,50.7,28.62,South,187,3.1,5.8,57,0.00,,---,0.00,VWS V14.01,2013-01-29 02:49:00,
2013-01-28 20:55:00,66.4,50.7,28.62,West,265,0.0,3.6,57,0.00,,---,0.00,VWS V14.01,2013-01-29 02:55:00,
2013-01-28 21:00:00,66.4,51.2,28.62,SSE,154,4.9,8.3,58,0.00,,---,0.00,VWS V14.01,2013-01-29 03:00:00,
2013-01-28 21:06:00,66.6,51.3,28.62,WNW,299,0.0,7.6,58,0.00,,---,0.00,VWS V14.01,2013-01-29 03:06:00,
2013-01-28 21:11:00,66.4,50.7,28.62,SW,224,4.0,6.3,57,0.00,,---,0.00,VWS V14.01,2013-01-29 03:11:00,
2013-01-28 21:16:00,66.4,51.2,28.62,ENE,67,4.9,4.9,58,0.00,,---,0.00,VWS V14.01,2013-01-29 03:16:00,
2013-01-28 21:21:00,66.4,51.2,28.62,West,260,0.0,6.3,58,0.00,,---,0.00,VWS V14.01,2013-01-29 03:21:00,
2013-01-28 21:27:00,66.2,51.0,28.62,WNW,296,2.7,3.6,58,0.00,,---,0.00,VWS V14.01,2013-01-29 03:27:00,
2013-01-28 21:32:00,65.8,51.1,28.62,North,353,2.2,5.4,59,0.00,,---,0.00,VWS V14.01,2013-01-29 03:32:00,
2013-01-28 21:38:00,65.8,51.6,28.62,SSW,199,0.0,3.6,60,0.00,,---,0.00,VWS V14.01,2013-01-29 03:38:00,
2013-01-28 21:43:00,65.7,51.9,28.62,West,270,2.7,4.0,61,0.00,,---,0.00,VWS V14.01,2013-01-29 03:43:00,
2013-01-28 21:48:00,65.5,51.7,28.62,NW,315,0.0,2.2,61,0.00,,---,0.00,VWS V14.01,2013-01-29 03:48:00,
2013-01-28 21:54:00,65.3,52.0,28.62,ENE,70,0.0,2.7,62,0.00,,---,0.00,VWS V14.01,2013-01-29 03:54:00,
2013-01-28 21:59:00,65.5,52.6,28.62,WSW,253,0.0,4.0,63,0.00,,---,0.00,VWS V14.01,2013-01-29 03:59:00,
2013-01-28 22:05:00,65.5,52.6,28.62,SE,137,4.0,4.0,63,0.00,,---,0.00,VWS V14.01,2013-01-29 04:05:00,
2013-01-28 22:10:00,65.5,52.6,28.62,SE,128,0.0,2.2,63,0.00,,---,0.00,VWS V14.01,2013-01-29 04:10:00,
2013-01-28 22:16:00,65.7,52.7,28.62,WNW,303,0.0,0.0,63,0.00,,---,0.00,VWS V14.01,2013-01-29 04:16:00,
2013-01-28 22:22:00,65.8,52.9,28.62,SSE,148,2.2,3.6,63,0.00,,---,0.00,VWS V14.01,2013-01-29 04:22:00,
2013-01-28 22:27:00,65.7,52.7,28.62,ENE,69,0.0,2.7,63,0.00,,---,0.00,VWS V14.01,2013-01-29 04:27:00,
2013-01-28 22:32:00,65.5,53.0,28.62,SSE,167,5.4,5.4,64,0.00,,---,0.00,VWS V14.01,2013-01-29 04:32:00,
2013-01-28 22:37:00,65.7,53.2,28.62,WNW,285,0.0,0.0,64,0.00,,---,0.00,VWS V14.01,2013-01-29 04:37:00,
2013-01-28 22:43:00,65.5,53.0,28.62,North,6,2.7,5.8,64,0.00,,---,0.00,VWS V14.01,2013-01-29 04:43:00,
2013-01-28 22:48:00,65.7,53.2,28.62,West,261,3.6,3.6,64,0.00,,---,0.00,VWS V14.01,2013-01-29 04:48:00,
2013-01-28 22:54:00,65.8,53.8,28.62,East,91,2.7,2.7,65,0.00,,---,0.00,VWS V14.01,2013-01-29 04:54:00,
2013-01-28 22:59:00,66.2,53.7,28.62,WNW,302,2.2,2.7,64,0.00,,---,0.00,VWS V14.01,2013-01-29 04:59:00,
2013-01-28 23:03:00,66.2,53.7,28.59,NW,320,4.0,4.0,64,0.00,,---,0.00,VWS V14.01,2013-01-29 05:03:00,
2013-01-28 23:04:00,66.4,53.8,28.59,NW,320,4.0,4.0,64,0.00,,---,0.00,VWS V14.01,2013-01-29 05:04:00,
2013-01-28 23:05:00,66.4,53.8,28.59,NW,320,4.0,4.0,64,0.00,,---,0.00,VWS V14.01,2013-01-29 05:05:00,
2013-01-28 23:10:00,66.4,53.8,28.59,WSW,246,3.6,3.6,64,0.00,,---,0.00,VWS V14.01,2013-01-29 05:10:00,
2013-01-28 23:13:00,66.4,53.8,28.59,NNW,339,0.0,3.6,64,0.00,,---,0.00,VWS V14.01,2013-01-29 05:13:00,
2013-01-28 23:19:00,66.6,54.0,28.59,West,277,7.6,7.6,64,0.00,,---,0.00,VWS V14.01,2013-01-29 05:19:00,
2013-01-28 23:24:00,66.6,54.0,28.59,South,189,3.6,3.6,64,0.00,,---,0.00,VWS V14.01,2013-01-29 05:24:00,
2013-01-28 23:29:00,66.7,54.2,28.59,West,259,5.8,5.8,64,0.00,,---,0.00,VWS V14.01,2013-01-29 05:29:00,
2013-01-28 23:34:00,66.7,54.2,28.59,SW,216,2.2,2.2,64,0.00,,---,0.00,VWS V14.01,2013-01-29 05:34:00,
2013-01-28 23:40:00,66.9,54.4,28.59,West,273,6.3,6.3,64,0.00,,---,0.00,VWS V14.01,2013-01-29 05:40:00,
2013-01-28 23:46:00,67.3,54.7,28.59,SSW,193,3.1,3.1,64,0.00,,---,0.00,VWS V14.01,2013-01-29 05:46:00,
2013-01-28 23:51:00,67.5,54.9,28.59,SSE,166,7.6,10.1,64,0.00,,---,0.00,VWS V14.01,2013-01-29 05:51:00,
2013-01-28 23:57:00,67.6,54.6,28.59,West,261,2.7,2.7,63,0.00,,---,0.00,VWS V14.01,2013-01-29 05:57:00,